User: anonymous
Location: Unspecified
(0.0000°N, 0.0000°E)
Time: 09:32:49
(UTC+02:00)
Language:

Cosmos 1536 - Orbit

View from above orbital plane
View from above orbital plane
View from above satellite
View from above satellite

Ground track
Ground track

The orbit data is extracted from the following two-line orbital elements,

1 14699U 84013A   14258.74235565  .00002136  00000-0  15900-3 0  1758
2 14699 082.5261 221.6888 0011856 234.1275 125.8850 15.02422386661943
Epoch (UTC): 15 September 2014 17:48:59
Eccentricity: 0.0011856
inclination: 82.5261°
perigee height: 551 km
apogee height: 567 km
right ascension of ascending node: 221.6888°
argument of perigee: 234.1275°
revolutions per day: 15.02422386
mean anomaly at epoch: 125.8850°
orbit number at epoch: 66194

The dashed part of the orbit path shows where the satellite is in the earth's shadow,  

DLR